Time,TemperatureF,DewpointF,PressureIn,WindDirection,WindDirectionDegrees,WindSpeedMPH,WindSpeedGustMPH,Humidity,HourlyPrecipIn,Conditions,Clouds,dailyrainin,SoftwareType,DateUTC
2013-06-03 00:08:00,55.4,43.0,30.06,East,95,3.0,3.0,63,0.00,,,0.00,weatherlink.com 1.10,2013-06-03 05:08:00,
2013-06-03 00:23:00,55.1,43.0,30.06,East,85,2.0,3.0,63,0.00,,,0.00,weatherlink.com 1.10,2013-06-03 05:23:00,
2013-06-03 00:38:00,54.4,43.0,30.06,East,85,1.0,2.0,66,0.00,,,0.00,weatherlink.com 1.10,2013-06-03 05:38:00,
2013-06-03 00:53:00,54.1,43.0,30.06,ENE,66,2.0,3.0,67,0.00,,,0.00,weatherlink.com 1.10,2013-06-03 05:53:00,
2013-06-03 01:08:00,53.8,43.0,30.06,East,82,0.0,3.0,67,0.00,,,0.00,weatherlink.com 1.10,2013-06-03 06:08:00,
2013-06-03 01:23:00,53.3,43.0,30.06,SSE,155,1.0,1.0,69,0.00,,,0.00,weatherlink.com 1.10,2013-06-03 06:23:00,
2013-06-03 01:38:00,52.9,43.0,30.06,ESE,112,0.0,1.0,69,0.00,,,0.00,weatherlink.com 1.10,2013-06-03 06:38:00,
2013-06-03 01:53:00,52.2,43.0,30.06,SE,145,0.0,2.0,71,0.00,,,0.00,weatherlink.com 1.10,2013-06-03 06:53:00,
2013-06-03 02:08:00,51.8,43.0,30.07,East,94,1.0,2.0,72,0.00,,,0.00,weatherlink.com 1.10,2013-06-03 07:08:00,
2013-06-03 02:23:00,52.0,43.0,30.06,ESE,115,0.0,1.0,71,0.00,,,0.00,weatherlink.com 1.10,2013-06-03 07:23:00,
2013-06-03 02:38:00,51.6,43.0,30.06,East,99,1.0,1.0,73,0.00,,,0.00,weatherlink.com 1.10,2013-06-03 07:38:00,
2013-06-03 02:53:00,51.6,43.0,30.06,ENE,77,2.0,3.0,73,0.00,,,0.00,weatherlink.com 1.10,2013-06-03 07:53:00,
2013-06-03 03:08:00,51.4,43.0,30.06,ESE,110,0.0,2.0,74,0.00,,,0.00,weatherlink.com 1.10,2013-06-03 08:08:00,
2013-06-03 03:23:00,50.8,43.0,30.06,East,79,0.0,0.0,75,0.00,,,0.00,weatherlink.com 1.10,2013-06-03 08:23:00,
2013-06-03 03:38:00,50.5,44.0,30.06,East,91,1.0,2.0,77,0.00,,,0.00,weatherlink.com 1.10,2013-06-03 08:38:00,
2013-06-03 03:53:00,50.4,44.0,30.06,East,96,0.0,1.0,78,0.00,,,0.00,weatherlink.com 1.10,2013-06-03 08:53:00,
2013-06-03 04:08:00,50.1,44.0,30.06,East,89,0.0,3.0,79,0.00,,,0.00,weatherlink.com 1.10,2013-06-03 09:08:00,
2013-06-03 04:23:00,49.9,44.0,30.05,East,93,0.0,2.0,79,0.00,,,0.00,weatherlink.com 1.10,2013-06-03 09:23:00,
2013-06-03 04:38:00,49.3,44.0,30.05,ESE,109,0.0,1.0,81,0.00,,,0.00,weatherlink.com 1.10,2013-06-03 09:38:00,
2013-06-03 04:53:00,49.6,44.0,30.06,ESE,110,1.0,2.0,81,0.00,,,0.00,weatherlink.com 1.10,2013-06-03 09:53:00,
2013-06-03 05:08:00,49.6,44.0,30.06,SSE,148,2.0,3.0,81,0.00,,,0.00,weatherlink.com 1.10,2013-06-03 10:08:00,
2013-06-03 05:23:00,49.3,44.0,30.07,SSE,150,3.0,4.0,82,0.00,,,0.00,weatherlink.com 1.10,2013-06-03 10:23:00,
2013-06-03 05:38:00,49.4,44.0,30.07,SSE,154,2.0,4.0,82,0.00,,,0.00,weatherlink.com 1.10,2013-06-03 10:38:00,
2013-06-03 05:53:00,48.9,44.0,30.07,ENE,70,2.0,4.0,83,0.00,,,0.00,weatherlink.com 1.10,2013-06-03 10:53:00,
2013-06-03 06:09:00,48.7,44.0,30.08,NE,51,3.0,5.0,84,0.00,,,0.00,weatherlink.com 1.10,2013-06-03 11:09:00,
2013-06-03 06:24:00,49.5,44.0,30.08,ENE,66,2.0,4.0,82,0.00,,,0.00,weatherlink.com 1.10,2013-06-03 11:24:00,
2013-06-03 06:39:00,50.0,45.0,30.09,East,81,2.0,4.0,82,0.00,,,0.00,weatherlink.com 1.10,2013-06-03 11:39:00,
2013-06-03 06:54:00,50.9,46.0,30.09,East,88,2.0,5.0,82,0.00,,,0.00,weatherlink.com 1.10,2013-06-03 11:54:00,
2013-06-03 07:09:00,52.3,47.0,30.09,East,86,4.0,5.0,81,0.00,,,0.00,weatherlink.com 1.10,2013-06-03 12:09:00,
2013-06-03 07:24:00,55.0,48.0,30.09,South,189,2.0,7.0,77,0.00,,,0.00,weatherlink.com 1.10,2013-06-03 12:24:00,
2013-06-03 07:40:00,55.1,47.0,30.10,SW,231,5.0,9.0,75,0.00,,,0.00,weatherlink.com 1.10,2013-06-03 12:40:00,
2013-06-03 07:54:00,56.6,49.0,30.10,South,188,6.0,8.0,75,0.00,,,0.00,weatherlink.com 1.10,2013-06-03 12:54:00,
2013-06-03 08:09:00,57.9,49.0,30.10,SSW,196,8.0,10.0,71,0.00,,,0.00,weatherlink.com 1.10,2013-06-03 13:09:00,
2013-06-03 08:24:00,58.8,49.0,30.09,SSE,152,6.0,8.0,69,0.00,,,0.00,weatherlink.com 1.10,2013-06-03 13:24:00,
2013-06-03 08:39:00,59.5,50.0,30.09,SSW,200,7.0,9.0,70,0.00,,,0.00,weatherlink.com 1.10,2013-06-03 13:39:00,
2013-06-03 08:54:00,60.6,49.0,30.09,SSE,164,9.0,11.0,66,0.00,,,0.00,weatherlink.com 1.10,2013-06-03 13:54:00,
2013-06-03 09:09:00,61.5,49.0,30.08,SW,214,10.0,11.0,63,0.00,,,0.00,weatherlink.com 1.10,2013-06-03 14:09:00,
2013-06-03 09:24:00,62.4,47.0,30.08,SW,224,5.0,11.0,58,0.00,,,0.00,weatherlink.com 1.10,2013-06-03 14:24:00,
2013-06-03 09:39:00,63.2,48.0,30.07,SSW,201,7.0,11.0,58,0.00,,,0.00,weatherlink.com 1.10,2013-06-03 14:39:00,
2013-06-03 09:54:00,63.8,46.0,30.07,SSE,158,6.0,11.0,52,0.00,,,0.00,weatherlink.com 1.10,2013-06-03 14:54:00,
2013-06-03 10:09:00,64.5,49.0,30.07,South,176,8.0,18.0,57,0.00,,,0.00,weatherlink.com 1.10,2013-06-03 15:09:00,
2013-06-03 10:24:00,64.5,45.0,30.07,ENE,78,4.0,12.0,50,0.00,,,0.00,weatherlink.com 1.10,2013-06-03 15:24:00,
2013-06-03 10:39:00,65.7,47.0,30.06,SSE,150,5.0,10.0,51,0.00,,,0.00,weatherlink.com 1.10,2013-06-03 15:39:00,
2013-06-03 10:54:00,65.5,45.0,30.06,SSW,197,9.0,14.0,47,0.00,,,0.00,weatherlink.com 1.10,2013-06-03 15:54:00,
2013-06-03 11:09:00,66.3,46.0,30.07,SSW,209,9.0,13.0,48,0.00,,,0.00,weatherlink.com 1.10,2013-06-03 16:09:00,
2013-06-03 11:24:00,66.0,45.0,30.07,SSW,194,7.0,12.0,47,0.00,,,0.00,weatherlink.com 1.10,2013-06-03 16:24:00,
2013-06-03 11:39:00,65.8,45.0,30.07,SSW,199,5.0,13.0,48,0.00,,,0.00,weatherlink.com 1.10,2013-06-03 16:39:00,
2013-06-03 11:54:00,66.2,43.0,30.07,NW,311,2.0,16.0,43,0.00,,,0.00,weatherlink.com 1.10,2013-06-03 16:54:00,
2013-06-03 12:09:00,66.8,44.0,30.06,East,87,6.0,12.0,44,0.00,,,0.00,weatherlink.com 1.10,2013-06-03 17:09:00,
2013-06-03 12:24:00,67.6,44.0,30.05,SSE,158,6.0,13.0,43,0.00,,,0.00,weatherlink.com 1.10,2013-06-03 17:24:00,
2013-06-03 12:39:00,66.4,45.0,30.04,SSE,148,8.0,14.0,46,0.00,,,0.00,weatherlink.com 1.10,2013-06-03 17:39:00,
2013-06-03 12:54:00,66.9,44.0,30.04,South,184,6.0,15.0,43,0.00,,,0.00,weatherlink.com 1.10,2013-06-03 17:54:00,
2013-06-03 13:10:00,67.3,45.0,30.03,SE,132,6.0,16.0,44,0.00,,,0.00,weatherlink.com 1.10,2013-06-03 18:10:00,
2013-06-03 13:25:00,67.7,44.0,30.02,SSW,201,6.0,13.0,43,0.00,,,0.00,weatherlink.com 1.10,2013-06-03 18:25:00,
2013-06-03 13:40:00,68.3,45.0,30.02,SE,139,7.0,12.0,44,0.00,,,0.00,weatherlink.com 1.10,2013-06-03 18:40:00,
2013-06-03 13:55:00,68.2,43.0,30.02,SE,124,3.0,15.0,41,0.00,,,0.00,weatherlink.com 1.10,2013-06-03 18:55:00,
2013-06-03 14:10:00,68.8,45.0,30.00,East,84,9.0,22.0,43,0.00,,,0.00,weatherlink.com 1.10,2013-06-03 19:10:00,
2013-06-03 14:25:00,69.0,45.0,30.01,East,90,11.0,19.0,43,0.00,,,0.00,weatherlink.com 1.10,2013-06-03 19:25:00,
2013-06-03 14:40:00,69.4,45.0,30.00,East,101,4.0,19.0,42,0.00,,,0.00,weatherlink.com 1.10,2013-06-03 19:40:00,
2013-06-03 14:55:00,69.7,44.0,30.00,South,171,9.0,16.0,40,0.00,,,0.00,weatherlink.com 1.10,2013-06-03 19:55:00,
2013-06-03 15:10:00,70.5,45.0,29.99,SSW,210,10.0,14.0,40,0.00,,,0.00,weatherlink.com 1.10,2013-06-03 20:10:00,
2013-06-03 15:25:00,70.2,44.0,29.99,South,186,5.0,19.0,39,0.00,,,0.00,weatherlink.com 1.10,2013-06-03 20:25:00,
2013-06-03 15:40:00,70.2,45.0,29.99,SE,128,7.0,18.0,41,0.00,,,0.00,weatherlink.com 1.10,2013-06-03 20:40:00,
2013-06-03 15:55:00,70.3,45.0,29.98,SE,141,4.0,18.0,41,0.00,,,0.00,weatherlink.com 1.10,2013-06-03 20:55:00,
2013-06-03 16:10:00,70.1,44.0,29.98,ESE,115,5.0,16.0,39,0.00,,,0.00,weatherlink.com 1.10,2013-06-03 21:10:00,
2013-06-03 16:25:00,69.9,44.0,29.97,East,86,16.0,22.0,39,0.00,,,0.00,weatherlink.com 1.10,2013-06-03 21:25:00,
2013-06-03 16:40:00,70.9,45.0,29.96,SE,126,5.0,16.0,39,0.00,,,0.00,weatherlink.com 1.10,2013-06-03 21:40:00,
2013-06-03 16:55:00,69.9,44.0,29.96,East,98,19.0,23.0,40,0.00,,,0.00,weatherlink.com 1.10,2013-06-03 21:55:00,
2013-06-03 17:10:00,70.5,44.0,29.96,ENE,77,18.0,20.0,39,0.00,,,0.00,weatherlink.com 1.10,2013-06-03 22:10:00,
2013-06-03 17:25:00,70.5,44.0,29.96,East,84,14.0,21.0,38,0.00,,,0.00,weatherlink.com 1.10,2013-06-03 22:25:00,
2013-06-03 17:40:00,70.2,45.0,29.96,East,88,8.0,26.0,40,0.00,,,0.00,weatherlink.com 1.10,2013-06-03 22:40:00,
2013-06-03 17:55:00,70.8,42.0,29.96,ESE,119,11.0,24.0,36,0.00,,,0.00,weatherlink.com 1.10,2013-06-03 22:55:00,
2013-06-03 18:10:00,70.4,44.0,29.95,ESE,107,16.0,26.0,39,0.00,,,0.00,weatherlink.com 1.10,2013-06-03 23:10:00,
2013-06-03 18:25:00,70.4,45.0,29.95,East,94,15.0,26.0,41,0.00,,,0.00,weatherlink.com 1.10,2013-06-03 23:25:00,
2013-06-03 18:40:00,70.2,45.0,29.94,ESE,110,7.0,27.0,41,0.00,,,0.00,weatherlink.com 1.10,2013-06-03 23:40:00,
2013-06-03 18:55:00,69.3,45.0,29.93,East,97,13.0,30.0,42,0.00,,,0.00,weatherlink.com 1.10,2013-06-03 23:55:00,
2013-06-03 19:10:00,69.6,45.0,29.93,East,99,7.0,22.0,42,0.00,,,0.00,weatherlink.com 1.10,2013-06-04 00:10:00,
2013-06-03 19:25:00,69.4,45.0,29.94,ESE,115,12.0,19.0,41,0.00,,,0.00,weatherlink.com 1.10,2013-06-04 00:25:00,
2013-06-03 19:40:00,68.8,43.0,29.95,East,93,8.0,15.0,40,0.00,,,0.00,weatherlink.com 1.10,2013-06-04 00:40:00,
2013-06-03 19:55:00,68.0,45.0,29.95,SE,139,7.0,15.0,43,0.00,,,0.00,weatherlink.com 1.10,2013-06-04 00:55:00,
2013-06-03 20:10:00,67.4,45.0,29.95,East,97,10.0,12.0,45,0.00,,,0.00,weatherlink.com 1.10,2013-06-04 01:10:00,
2013-06-03 20:25:00,66.9,46.0,29.96,East,84,6.0,11.0,47,0.00,,,0.00,weatherlink.com 1.10,2013-06-04 01:25:00,
2013-06-03 20:40:00,65.7,47.0,29.96,South,187,5.0,12.0,51,0.00,,,0.00,weatherlink.com 1.10,2013-06-04 01:40:00,
2013-06-03 20:55:00,64.9,47.0,29.96,ESE,103,6.0,9.0,53,0.00,,,0.00,weatherlink.com 1.10,2013-06-04 01:55:00,
2013-06-03 21:10:00,64.3,47.0,29.96,SE,143,3.0,8.0,54,0.00,,,0.00,weatherlink.com 1.10,2013-06-04 02:10:00,
2013-06-03 21:25:00,63.7,47.0,29.97,ESE,117,7.0,9.0,55,0.00,,,0.00,weatherlink.com 1.10,2013-06-04 02:25:00,
2013-06-03 21:40:00,63.8,47.0,29.98,ESE,115,5.0,9.0,54,0.00,,,0.00,weatherlink.com 1.10,2013-06-04 02:40:00,
2013-06-03 21:55:00,63.9,46.0,30.00,East,82,6.0,7.0,53,0.00,,,0.00,weatherlink.com 1.10,2013-06-04 02:55:00,
2013-06-03 22:10:00,64.0,46.0,30.00,East,93,4.0,10.0,53,0.00,,,0.00,weatherlink.com 1.10,2013-06-04 03:10:00,
2013-06-03 22:25:00,64.0,47.0,30.01,ESE,108,7.0,10.0,54,0.00,,,0.00,weatherlink.com 1.10,2013-06-04 03:25:00,
2013-06-03 22:40:00,63.2,48.0,30.01,ENE,78,7.0,11.0,58,0.00,,,0.00,weatherlink.com 1.10,2013-06-04 03:40:00,
2013-06-03 22:55:00,63.2,48.0,30.01,East,90,10.0,13.0,58,0.00,,,0.00,weatherlink.com 1.10,2013-06-04 03:55:00,
2013-06-03 23:10:00,63.5,48.0,30.01,East,79,7.0,11.0,58,0.00,,,0.00,weatherlink.com 1.10,2013-06-04 04:10:00,
2013-06-03 23:25:00,63.2,48.0,30.00,East,84,11.0,14.0,59,0.00,,,0.00,weatherlink.com 1.10,2013-06-04 04:25:00,
2013-06-03 23:40:00,63.1,49.0,30.00,ESE,122,9.0,13.0,60,0.00,,,0.00,weatherlink.com 1.10,2013-06-04 04:40:00,
2013-06-03 23:55:00,63.0,50.0,29.99,SE,134,5.0,11.0,62,0.00,,,0.00,weatherlink.com 1.10,2013-06-04 04:55:00,